Orbital Elements at Epoch 2459000.5 (2020-May-31.0) TDB
Reference: JPL 22 (heliocentric ecliptic J2000)
Element | Value | Uncertainty (1-sigma) | Units |
e | .1577382045154044 | 4.8823e-08 | |
a | 2.599060200370167 | 1.4893e-08 | au |
q | 2.18908911093633 | 1.2717e-07 | au |
i | 14.46276699071483 | 5.8073e-06 | deg |
node | 6.417658680505888 | 1.4141e-05 | deg |
peri | 324.8827967428775 | 2.1757e-05 | deg |
M | 83.09855467991649 | 1.5218e-05 | deg |
tp | 2458647.224186857397 (2019-Jun-12.72418686) | 6.5345e-05 | TDB |
period | 1530.463354281108 4.19 | 1.3155e-05 3.602e-08 | d yr |
n | .2352228813535362 | 2.0218e-09 | deg/d |
Q | 3.009031289804005 | 1.7242e-08 | au |
|
| | Orbit Determination Parameters
Additional Information
|